Weather History for KMOX - February, 2013

Change the Weather History Date:

Tuesday, February 19, 2013

  Actual Average Record
Temperature  
Mean Temperature -8 °F -  
Max Temperature -2 °F 26 °F 48 °F (2012)
Min Temperature -14 °F 10 °F -18 °F (2008)
Degree Days  
Heating Degree Days 73    
Moisture  
Dew Point -13 °F    
Average Humidity 76    
Maximum Humidity 85    
Minimum Humidity 65    
Precipitation  
Precipitation 0.00 in - - ()
Sea Level Pressure  
Sea Level Pressure 30.23 in    
Wind  
Wind Speed 27 mph (NW)    
Max Wind Speed 36 mph    
Max Gust Speed 44 mph    
Visibility 4 miles    
Events      
Averages and records for this station are not official NWS values.
T = Trace of Precipitation, MM = Missing Value Source: NWS Daily Summary

Daily Weather History Graph

Daily Weather History Graph

Search for Another Location

Airport or City:

Trip Planner

Search our weather history database for the weather conditions in past years. The results will help you decide how hot, cold, wet, or windy it might be!

Date:

Astronomy

Feb. 19, 2013 Rise Set
Actual Time 7:18 AM CST 5:57 PM CST
Civil Twilight 6:48 AM CST 6:27 PM CST
Nautical Twilight 6:14 AM CST 7:01 PM CST
Astronomical Twilight 5:39 AM CST 7:36 PM CST
Moon 12:20 PM CST (2/19) 3:00 AM CST (2/19)
Length of Visible Light 11h 38m
Length of Day
10h 38m
Waxing Gibbous, 67% of the Moon is Illuminated
Feb 19
Waxing Gibbous
Feb 25
Full
Mar 4
Last Quarter
Mar 11
New
Mar 19
First Quarter

Hourly Weather History & Observations

Time (CST) Temp. Windchill Dew Point Humidity Pressure Visibility Wind Dir Wind Speed Gust Speed Precip Events Conditions
12:12 AM -2.2 °F -28.8 °F -7.6 °F 78% 30.01 in 3.0 mi NNW 29.9 mph 35.7 mph N/A   Haze
12:32 AM -2.2 °F -29.2 °F -7.6 °F 78% 30.01 in 4.0 mi NW 31.1 mph - N/A   Haze
12:52 AM -2.2 °F -27.6 °F -7.6 °F 78% 30.02 in 4.0 mi NNW 26.5 mph 35.7 mph N/A   Haze
1:12 AM -2.2 °F -28.8 °F -7.6 °F 78% 30.03 in 4.0 mi NW 29.9 mph - N/A   Haze
1:32 AM -2.2 °F -28.4 °F -5.8 °F 85% 30.03 in 3.0 mi NNW 28.8 mph 38.0 mph N/A   Overcast
1:52 AM -2.2 °F -28.4 °F -7.6 °F 78% 30.04 in 3.0 mi NNW 28.8 mph 35.7 mph N/A   Haze
2:12 AM -2.2 °F -28.8 °F -7.6 °F 78% 30.05 in 2.5 mi NNW 29.9 mph 38.0 mph N/A   Haze
2:32 AM -2.2 °F -29.6 °F -7.6 °F 78% 30.05 in 2.5 mi NW 32.2 mph 38.0 mph N/A   Haze
2:52 AM -2.2 °F -28.4 °F -7.6 °F 78% 30.06 in 2.5 mi NNW 28.8 mph 36.8 mph N/A   Haze
3:12 AM -2.2 °F -29.2 °F -7.6 °F 78% 30.06 in 2.0 mi NW 31.1 mph 38.0 mph N/A   Haze
3:32 AM -2.2 °F -30.6 °F -7.6 °F 78% 30.07 in 1.8 mi NNW 35.7 mph 43.7 mph N/A   Haze
3:52 AM -4.0 °F -31.3 °F -9.4 °F 78% 30.07 in 2.0 mi NNW 29.9 mph 42.6 mph N/A   Haze
4:12 AM -4.0 °F -31.3 °F -9.4 °F 78% 30.08 in 2.0 mi NW 29.9 mph 40.3 mph N/A   Haze
4:32 AM -5.8 °F -33.7 °F -9.4 °F 84% 30.09 in 2.0 mi NNW 29.9 mph 39.1 mph N/A   Haze
4:52 AM -5.8 °F -35.6 °F -11.2 °F 77% 30.10 in 1.5 mi NW 35.7 mph 41.4 mph N/A   Haze
5:12 AM -7.6 °F -36.9 °F -13.0 °F 77% 30.10 in 2.0 mi NW 32.2 mph 38.0 mph N/A   Haze
5:32 AM -7.6 °F -37.7 °F -13.0 °F 77% 30.11 in 2.0 mi NW 34.5 mph 40.3 mph N/A   Haze
5:52 AM -7.6 °F -36.1 °F -14.8 °F 71% 30.13 in 2.5 mi NW 29.9 mph 35.7 mph N/A   Haze
6:12 AM -9.4 °F -39.0 °F -14.8 °F 77% 30.13 in 2.0 mi NW 31.1 mph 39.1 mph N/A   Haze
6:32 AM -9.4 °F -39.0 °F -14.8 °F 77% 30.14 in 2.5 mi NW 31.1 mph - N/A   Haze
6:52 AM -7.6 °F -36.9 °F -14.8 °F 71% 30.14 in 2.0 mi NW 32.2 mph 36.8 mph N/A   Haze
7:12 AM -9.4 °F -39.8 °F -14.8 °F 77% 30.15 in 2.0 mi NW 33.4 mph 39.1 mph N/A   Haze
7:32 AM -9.4 °F -39.0 °F -14.8 °F 77% 30.17 in 1.5 mi NW 31.1 mph - N/A   Haze
7:52 AM -9.4 °F -39.4 °F -14.8 °F 77% 30.18 in 1.2 mi NW 32.2 mph 38.0 mph N/A   Haze
8:12 AM -9.4 °F -38.2 °F -14.8 °F 77% 30.19 in 1.5 mi NW 28.8 mph 39.1 mph N/A   Haze
8:32 AM -9.4 °F -39.4 °F -14.8 °F 77% 30.20 in 1.5 mi NW 32.2 mph 38.0 mph N/A   Haze
8:52 AM -9.4 °F -37.7 °F -16.6 °F 71% 30.22 in 1.8 mi NW 27.6 mph 34.5 mph N/A   Haze
9:12 AM -9.4 °F -37.3 °F -16.6 °F 71% 30.23 in 2.0 mi NW 26.5 mph 32.2 mph N/A   Haze
9:32 AM -9.4 °F -37.3 °F -16.6 °F 71% 30.23 in 2.0 mi NW 26.5 mph 33.4 mph N/A   Haze
9:52 AM -9.4 °F -38.2 °F -16.6 °F 71% 30.23 in 1.5 mi NNW 28.8 mph 36.8 mph N/A   Haze
10:12 AM -7.6 °F -34.4 °F -14.8 °F 71% 30.24 in 1.5 mi NNW 25.3 mph 34.5 mph N/A   Haze
10:32 AM -7.6 °F -36.9 °F -14.8 °F 71% 30.25 in 1.5 mi NW 32.2 mph 36.8 mph N/A   Haze
10:52 AM -7.6 °F -34.8 °F -14.8 °F 71% 30.25 in 1.8 mi NNW 26.5 mph 35.7 mph N/A   Haze
11:12 AM -7.6 °F -35.7 °F -14.8 °F 71% 30.26 in 1.0 mi NW 28.8 mph 35.7 mph N/A   Haze
11:32 AM -7.6 °F -33.9 °F -14.8 °F 71% 30.26 in 1.2 mi NNW 24.2 mph 33.4 mph N/A   Haze
11:52 AM -7.6 °F -34.4 °F -14.8 °F 71% 30.28 in 1.5 mi NNW 25.3 mph 31.1 mph N/A   Haze
12:32 PM -5.8 °F -32.4 °F -14.8 °F 65% 30.28 in 1.8 mi NW 26.5 mph 32.2 mph N/A   Haze
12:52 PM -5.8 °F -31.5 °F -13.0 °F 71% 30.28 in 1.5 mi NNW 24.2 mph 35.7 mph N/A   Haze
1:12 PM -5.8 °F -33.7 °F -13.0 °F 71% 30.28 in 1.8 mi NW 29.9 mph - N/A   Haze
1:32 PM -5.8 °F -31.5 °F -13.0 °F 71% 30.28 in 2.0 mi NNW 24.2 mph 34.5 mph N/A   Haze
1:52 PM -5.8 °F -32.0 °F -13.0 °F 71% 30.27 in 2.0 mi NNW 25.3 mph 33.4 mph N/A   Haze
2:11 PM -5.8 °F -32.9 °F -13.0 °F 71% 30.27 in 3.0 mi NW 27.6 mph 31.1 mph N/A   Haze
2:32 PM -5.8 °F -30.5 °F -11.2 °F 77% 30.28 in 3.0 mi NNW 21.9 mph 31.1 mph N/A   Haze
2:52 PM -5.8 °F -31.5 °F -11.2 °F 77% 30.29 in 1.2 mi NW 24.2 mph 29.9 mph N/A   Haze
3:11 PM -5.8 °F -32.0 °F -11.2 °F 77% 30.29 in 2.0 mi NNW 25.3 mph 29.9 mph N/A   Haze
3:32 PM -5.8 °F -32.0 °F -11.2 °F 77% 30.30 in 2.0 mi NW 25.3 mph 28.8 mph N/A   Haze
3:51 PM -5.8 °F -33.7 °F -11.2 °F 77% 30.31 in 1.8 mi NW 29.9 mph - N/A   Haze
4:12 PM -5.8 °F -31.0 °F -11.2 °F 77% 30.31 in 4.0 mi NW 23.0 mph 27.6 mph N/A   Haze
4:31 PM -5.8 °F -31.0 °F -11.2 °F 77% 30.33 in 3.0 mi NW 23.0 mph 29.9 mph N/A   Haze
4:52 PM -5.8 °F -31.0 °F -11.2 °F 77% 30.33 in 7.0 mi NW 23.0 mph 29.9 mph N/A   Overcast
5:12 PM -5.8 °F -32.4 °F -13.0 °F 71% 30.33 in 10.0 mi NW 26.5 mph - N/A   Overcast
5:32 PM -7.6 °F -32.3 °F -13.0 °F 77% 30.34 in 7.0 mi NW 20.7 mph 26.5 mph N/A   Overcast
6:32 PM -7.6 °F -30.5 °F -14.8 °F 71% 30.35 in 10.0 mi NNW 17.3 mph - N/A   Clear
6:51 PM -9.4 °F -32.8 °F -14.8 °F 77% 30.34 in 10.0 mi NNW 17.3 mph - N/A   Clear
7:12 PM -9.4 °F -32.8 °F -14.8 °F 77% 30.34 in 10.0 mi NNW 17.3 mph - N/A   Clear
7:51 PM -9.4 °F -30.6 °F -16.6 °F 71% 30.35 in 10.0 mi NNW 13.8 mph - N/A   Clear
8:12 PM -11.2 °F -32.1 °F -16.6 °F 77% 30.35 in 10.0 mi NNW 12.7 mph - N/A   Clear
8:32 PM -11.2 °F -32.9 °F -16.6 °F 77% 30.36 in 10.0 mi NNW 13.8 mph - N/A   Clear
8:52 PM -11.2 °F -30.1 °F -16.6 °F 77% 30.37 in 10.0 mi NW 10.4 mph - N/A   Clear
9:12 PM -11.2 °F -32.9 °F -16.6 °F 77% 30.38 in 10.0 mi NW 13.8 mph - N/A   Clear
9:32 PM -13.0 °F -36.0 °F -18.4 °F 77% 30.38 in 10.0 mi NW 15.0 mph - N/A   Clear
9:52 PM -13.0 °F -35.2 °F -18.4 °F 77% 30.39 in 10.0 mi NW 13.8 mph - N/A   Clear
10:12 PM -13.0 °F -33.4 °F -18.4 °F 77% 30.39 in 10.0 mi NNW 11.5 mph - N/A   Clear
10:32 PM -13.0 °F -34.3 °F -18.4 °F 77% 30.39 in 10.0 mi NNW 12.7 mph - N/A   Clear
10:52 PM -14.8 °F -33.5 °F -18.4 °F 84% 30.40 in 10.0 mi NW 9.2 mph - N/A   Clear
11:12 PM -14.8 °F -34.6 °F -18.4 °F 84% 30.41 in 10.0 mi NW 10.4 mph - N/A   Clear
11:32 PM -14.8 °F -35.6 °F -18.4 °F 84% 30.41 in 10.0 mi NW 11.5 mph - N/A   Clear
11:52 PM -14.8 °F -34.6 °F -20.2 °F 77% 30.41 in 10.0 mi NW 10.4 mph - N/A   Clear